Satellite-Ground Cal/Val Region Overpasses Predictions

Prediction of Satellite NPP Overpassing Cal/Val Region: PacNW

Region Location: (Latitude: 10.00, Longitude: 139.50) to (Latitude: 22.70, Longitude: 165.60).

Table of predicted overpasses for the next 14.0 days since TLE Epoch: 4/10/2022
Interval Starting Time Starting Location Ending Time Ending Location
1 04/10/2022 02:28:13 ( 15.08, 161.89) 04/10/2022 02:30:22 ( 22.65, 160.06)
2 04/10/2022 14:58:40 ( 22.67, 160.30) 04/10/2022 15:02:15 ( 10.05, 157.30)
3 04/11/2022 02:10:27 ( 19.53, 165.59) 04/11/2022 02:11:21 ( 22.70, 164.81)
4 04/11/2022 03:49:15 ( 10.03, 142.45) 04/11/2022 03:52:46 ( 22.41, 139.51)
5 04/11/2022 14:39:37 ( 22.69, 165.06) 04/11/2022 14:43:13 ( 10.01, 162.04)
6 04/11/2022 16:21:07 ( 22.68, 139.68) 04/11/2022 16:21:19 ( 21.98, 139.51)
7 04/12/2022 03:30:12 ( 10.01, 147.21) 04/12/2022 03:33:48 ( 22.69, 144.19)
8 04/12/2022 16:02:05 ( 22.69, 144.45) 04/12/2022 16:05:41 ( 10.01, 141.43)
9 04/13/2022 03:11:11 ( 10.06, 151.96) 04/13/2022 03:14:46 ( 22.68, 148.96)
10 04/13/2022 15:43:04 ( 22.65, 149.19) 04/13/2022 15:46:38 ( 10.02, 146.19)
11 04/14/2022 02:52:08 ( 10.05, 156.72) 04/14/2022 02:55:43 ( 22.67, 153.72)
12 04/14/2022 15:24:01 ( 22.66, 153.96) 04/14/2022 15:27:36 ( 10.04, 150.95)
13 04/15/2022 02:33:06 ( 10.04, 161.48) 04/15/2022 02:36:41 ( 22.66, 158.48)
14 04/15/2022 15:04:59 ( 22.67, 158.72) 04/15/2022 15:08:34 ( 10.05, 155.72)
15 04/16/2022 02:14:51 ( 12.85, 165.60) 04/16/2022 02:17:38 ( 22.65, 163.24)
16 04/16/2022 03:55:33 ( 10.03, 140.87) 04/16/2022 03:57:13 ( 15.91, 139.51)
17 04/16/2022 14:45:56 ( 22.68, 163.48) 04/16/2022 14:49:31 ( 10.06, 160.48)
18 04/17/2022 03:36:31 ( 10.02, 145.63) 04/17/2022 03:40:06 ( 22.65, 142.63)
19 04/17/2022 14:30:03 ( 11.59, 165.59) 04/17/2022 14:30:30 ( 10.01, 165.23)
20 04/17/2022 16:08:24 ( 22.68, 142.86) 04/17/2022 16:11:59 ( 10.06, 139.86)
21 04/18/2022 03:17:28 ( 10.02, 150.39) 04/18/2022 03:21:04 ( 22.70, 147.37)
22 04/18/2022 15:49:21 ( 22.69, 147.63) 04/18/2022 15:52:57 ( 10.01, 144.61)
23 04/19/2022 02:58:26 ( 10.01, 155.15) 04/19/2022 03:02:02 ( 22.69, 152.14)
24 04/19/2022 15:30:19 ( 22.69, 152.39) 04/19/2022 15:33:55 ( 10.01, 149.37)
25 04/20/2022 02:39:23 ( 10.00, 159.91) 04/20/2022 02:42:59 ( 22.68, 156.90)
26 04/20/2022 15:11:17 ( 22.64, 157.13) 04/20/2022 15:14:52 ( 10.02, 154.13)
27 04/21/2022 02:20:22 ( 10.06, 164.66) 04/21/2022 02:23:57 ( 22.68, 161.66)
28 04/21/2022 14:52:15 ( 22.65, 161.90) 04/21/2022 14:55:50 ( 10.03, 158.89)
29 04/22/2022 03:42:50 ( 10.06, 144.05) 04/22/2022 03:46:25 ( 22.68, 141.04)
30 04/22/2022 14:34:26 ( 18.31, 165.59) 04/22/2022 14:36:47 ( 10.03, 163.65)
31 04/22/2022 16:14:42 ( 22.64, 141.28) 04/22/2022 16:16:47 ( 15.31, 139.50)
32 04/23/2022 03:23:47 ( 10.05, 148.81) 04/23/2022 03:27:22 ( 22.68, 145.80)
